Regional Weather Roundup
Issued by NWS

Home | Current Version | Previous Version | Graphics & Text | Print | Product List | Glossary On
Versions: 1 2 3 4 5 6 7 8 9 10 11 12 13 14 15 16 17 18 19 20 21 22 23 24 25 26 27 28 29 30 31 32 33 34 35 36 37 38 39 40 41 42 43 44 45 46 47 48 49 50
000
ASUS43 KLOT 302008
RWRIL

ILLINOIS REGIONAL WEATHER ROUNDUP
NATIONAL WEATHER SERVICE CHICAGO/ROMEOVILLE IL
300 PM CDT SUN AUG 30 2015

NOTE: "FAIR" INDICATES FEW OR NO CLOUDS BELOW 12,000 FEET WITH NO
SIGNIFICANT WEATHER AND/OR OBSTRUCTIONS TO VISIBILITY.

* THESE STATIONS ARE NOT UNDER NWS QUALITY CONTROL. THEY ALSO MAY NOT
  REPORT WEATHER SUCH AS PRECIPITATION OR FOG.

ILZ001-002-007-009-015-016-024-302100-
NORTHWEST ILLINOIS

CITY           SKY/WX    TMP DP  RH WIND       PRES   REMARKS
MOLINE         SUNNY     79  65  62 CALM      30.04F HX  81
STERLING*        N/A    N/A N/A N/A MISG        N/A
SAVANNA*       SUNNY     76  61  60 NW3       30.05F
$$

ILZ003-004-008-010-011-017-018-302100-
NORTH CENTRAL ILLINOIS

CITY           SKY/WX    TMP DP  RH WIND       PRES   REMARKS
ROCKFORD       PTSUNNY   75  62  64 VRB5      30.07F
FREEPORT*      PTSUNNY   73  63  70 CALM      30.07F
ROCHELLE*      MOSUNNY   73  63  70 CALM      30.06F
DE KALB*       MOSUNNY   74  63  69 CALM      30.07F
PERU*          CLOUDY    75  64  67 SE3       30.06F
$$

ILZ005-006-012>014-019>023-302100-
NORTHEAST ILLINOIS

CITY           SKY/WX    TMP DP  RH WIND       PRES   REMARKS
CHICAGO-OHARE  PTSUNNY   74  61  63 CALM      30.05F
CHICAGO-MIDWAY PTSUNNY   78  62  57 W5        30.04F HX  80
AURORA         PTSUNNY   76  64  66 SW3       30.06F
LANSING*       CLOUDY    77  65  66 CALM      30.05F
JOLIET*        PTSUNNY   79  66  64 CALM      30.05F HX  81
WAUKEGAN       CLOUDY    68  63  84 SE6       30.05F
DUPAGE AIRPORT CLOUDY    75  62  64 W6        30.05F
KANKAKEE*      CLOUDY    78  70  74 W6        30.05F HX  81
WHEELING       CLOUDY    72  62  71 SE5       30.07F
MORRIS*        PTSUNNY   76  65  68 CALM      30.04F
ROMEOVILLE*    CLOUDY    77  64  62 NW3       30.05F
NORTHERLY ISL    N/A     70  64  81 N7          N/A
$$

LMZ740>746-302100-
SOUTHERN LAKE MICHIGAN

STATION/POSITION SKY/WX   TEMP    WIND        PRES    VSBY  WAVE
                          AIR SEA DIR/SP/G                  HT/PER
                          (F)     (DEG/KT/KT) (MB)    (MI)  (FT/S)
SOUTHERN BUOY              66 69  340/  6/  6 1017.7F         1
WILMETTE HARBOR            62 60   60/  2/  4   N/A           1/ 3
HARRISON CRIB              64      10/  9/ 10   N/A
BURNHAM HARBOR             69      20/  6/  9   N/A
BURNS HARBOR               69     330/  4/  6 1018.6F
MICHIGAN CITY              70     290/  7/  7   N/A
MICHIGAN CITY 6N           69 71  360/  6/  8   N/A           1/ 3
ST. JOSEPH                 69 71  330/  8/ 10   N/A           1/ 3
$$

ILZ025>027-034>036-040-047-049-050-058-095>099-302100-
WEST-CENTRAL ILLINOIS

CITY           SKY/WX    TMP DP  RH WIND       PRES   REMARKS
QUINCY         PTSUNNY   83  68  60 VRB3      30.02F HX  86
GALESBURG*     MOSUNNY   80  67  65 NE3       30.04F HX  82
MACOMB*        SUNNY     80  68  66 CALM      30.05F HX  83
JACKSONVILLE*  MOSUNNY   87  70  57 CALM      30.02F HX  91
PITTSFIELD*    MOSUNNY   86  68  55 CALM      30.03F HX  89
$$

ILZ028>032-037-038-041>044-048-051>054-059>061-302100-
CENTRAL ILLINOIS

CITY           SKY/WX    TMP DP  RH WIND       PRES   REMARKS
PONTIAC        PTSUNNY   80  71  74 CALM      30.05F HX  83
BLOOMINGTON    PTSUNNY   82  71  69 N6        30.05F HX  86
DECATUR        MOSUNNY   86  65  49 S6        30.03F HX  88
PEORIA         MOSUNNY   83  67  58 VRB5      30.04F HX  85
LACON*         CLOUDY    76  65  69 CALM      30.04F
LINCOLN*       PTSUNNY   85  69  59 NE5       30.01F HX  88
SPRINGFIELD    MOSUNNY   87  70  56 NW5       30.02F HX  92
TAYLORVILLE    SUNNY     84  70  61 S6        30.02F HX  88
$$

ILZ033-039-045-046-055>057-062-063-302100-
EAST-CENTRAL ILLINOIS

CITY           SKY/WX    TMP DP  RH WIND       PRES   REMARKS
CHAMPAIGN      MOSUNNY   86  65  49 VRB7      30.03F HX  88
RANTOUL*       PTSUNNY   83  71  65 CALM      30.03F HX  88
MATTOON        MOSUNNY   84  64  50 S6        30.03F HX  85
PARIS*         SUNNY     86  65  48 S9        30.04F HX  87
$$

ILZ079-100>102-302100-
SOUTHWEST ILLINOIS

CITY           SKY/WX    TMP DP  RH WIND       PRES   REMARKS
BELLEVILLE     SUNNY     87  72  61 VRB2      30.00F HX  92
CAHOKIA*       PTSUNNY   87  68  52 S8        30.01F HX  90
SPARTA*        PTSUNNY   85  72  63 S6        30.03F HX  91
$$

ILZ064>066-069>071-074>076-080>082-084>086-088>090-092>094-302100-
SOUTH-CENTRAL ILLINOIS

CITY           SKY/WX    TMP DP  RH WIND       PRES   REMARKS
CARBONDALE     MOSUNNY   86  69  56 SW9       30.02F HX  90
CAIRO*         PTSUNNY   83  76  79 SE3       30.03F HX  91
EFFINGHAM*     CLOUDY    85  63  46 SE3       30.05F HX  86
MARION         PTSUNNY   86  73  66 S9        30.04F HX  93
MT. VERNON     MOSUNNY   86  68  54 S10       30.04F HX  89
SALEM*         PTSUNNY   86  68  53 S5        30.03F HX  89
METROPOLIS*    PTSUNNY   84  74  71 S6        30.04F HX  91
$$

ILZ067-068-072-073-078-083-087-091-302100-
SOUTHEAST ILLINOIS

CITY           SKY/WX    TMP DP  RH WIND       PRES   REMARKS
LAWRENCEVILLE  PTSUNNY   86  67  52 S7        30.04F HX  89
FLORA*         MOSUNNY   85  64  50 SW7       30.04F HX  86
FAIRFIELD*     MOSUNNY   84  68  57 SW6       30.03F HX  87
HARRISBURG*    MOSUNNY   86  70  59 W7        30.04F HX  90
ROBINSON*      MOSUNNY   86  65  49 SW9       30.04F HX  87
CARMI*         MOSUNNY   85  70  59 S6        30.03F HX  90
$$

ABBREVIATIONS USED IN REMARKS
   TC - TEMPERATURE IN CELSIUS
  WCI - WIND CHILL INDEX
   HX - HEAT INDEX
  VSB - VISIBILITY
$$



USA.gov is the U.S. government's official web portal to all federal, state and local government web resources and services.